Flag for U.S.A. Weather past 2 weeks in Owensboro, Kentucky, U.S.A.

Now
42 °F

Clear.


Feels Like: 35 °F
Forecast: 39 / 51 °F
Wind: 12 mph from South

Location: Owensboro / Daviess

Current Time: Feb 1, 2015 at 5:46:50 AM

Latest Report: Feb 1, 2015 at 4:56 AM


Visibility: 10 mi

Pressure: 29.97 "Hg

Humidity: 47%

Dew point: 23 °F

Location of OwensboroLocation

Historic Weather in Owensboro — Graph

°F

Owensboro temperature yesterday

Maximum temperature yesterday: 42 °F (at 12:56 PM)
Minimum temperature yesterday: 23 °F (at 5:56 AM)
Average temperature yesterday: 34 °F

Past Weeks' High & Low Weather Summary

 TemperatureHumidityPressure
High57 °F (Jan 19, 2:56 PM)100% (Jan 18, 1:56 AM)30.54 "Hg (Jan 18, 1:56 AM)
Low23 °F (Jan 24, 5:56 AM)38% (Jan 28, 1:56 PM)29.61 "Hg (Jan 25, 1:56 PM)
Average37 °F75%30.09 "Hg
* Reported Jan 17 4:56 AM — Feb 1 4:56 AM, Owensboro, Weather by CustomWeather, © 2014

Note: Actual official high and low records may vary slightly from our data, if they occured in-between our weather recording intervals... More about our weather records

Advertising

Owensboro weather history for previous 24 hours

 ConditionsComfort  
Time TempWeatherWind HumidityBarometerVisibility
4:56 AM
Feb 1
42 °FClear.12 mph47%29.97 "Hg10 mi
3:56 AM42 °FClear.14 mph47%30.01 "Hg10 mi
2:56 AM42 °FPassing clouds.14 mph45%30.03 "Hg10 mi
1:56 AM40 °FClear.9 mph53%30.08 "Hg10 mi
12:56 AM40 °FPassing clouds.9 mph53%30.10 "Hg10 mi
11:56 PM
Jan 31
41 °FClear.13 mph51%30.13 "Hg10 mi
10:56 PM40 °FClear.14 mph56%30.16 "Hg10 mi
9:56 PM39 °FClear.7 mph60%30.21 "Hg10 mi
8:56 PM40 °FPassing clouds.7 mph56%30.21 "Hg10 mi
7:56 PM38 °FClear.5 mph65%30.26 "Hg10 mi
6:56 PM39 °FClear.6 mph65%30.27 "Hg10 mi
5:56 PM40 °FClear.6 mph60%30.30 "Hg10 mi
4:56 PM41 °FPassing clouds.6 mph53%30.28 "Hg10 mi
3:56 PM42 °FSunny.9 mph49%30.29 "Hg10 mi
2:56 PM41 °FSunny.No wind49%30.32 "Hg10 mi
1:56 PM42 °FPassing clouds.6 mph49%30.35 "Hg10 mi
12:56 PM42 °FScattered clouds.7 mph52%30.36 "Hg10 mi
11:56 AM41 °FSunny.7 mph53%30.38 "Hg10 mi
10:56 AM38 °FSunny.8 mph60%30.41 "Hg10 mi
9:56 AM35 °FSunny.7 mph73%30.43 "Hg10 mi
8:56 AM30 °FSunny.5 mph79%30.42 "Hg10 mi
7:56 AM27 °FSunny.No wind85%30.41 "Hg10 mi
6:56 AM25 °FSunny.No wind88%30.41 "Hg10 mi
5:56 AM23 °FSunny.No wind92%30.40 "Hg10 mi
Weather by CustomWeather, © 2014

See weather overviewHow to use our weather pages